Date_and_time,latitude,longitude,wind_speed,RelWindDirFrom,WindDirFrom,air_pressure,air_temperature,relative_humidity,Temp,platform_speed_wrt_ground,air_pressure_at_mean_sea_level,platform_orientation
2018-07-25 00:00,50.6304483333333,-96.9807566666667,6.9,11.9,277,989.06,19.2,63,22.77,0.0,1015.09,90.0
2018-07-25 00:10,50.6304483333333,-96.9807616666667,7.6,11.7,279,989.09,19.1,62,22.77,0.0,1015.13,90.0
2018-07-25 00:20,50.6304483333333,-96.9807616666667,7.8,12.9,279,989.07,19.0,63,22.76,0.0,1015.12,90.0
2018-07-25 00:30,50.630445,-96.9807583333333,7.1,11.2,287,989.04,18.9,64,22.76,0.0,1015.09,90.0
2018-07-25 00:40,50.6304433333333,-96.98076,8.8,12.9,314,989.03,18.2,71,22.76,0.0,1015.12,90.0
2018-07-25 00:50,50.6304433333333,-96.9807583333333,7.4,11.5,323,989.10,17.5,78,22.74,0.0,1015.22,90.0
2018-07-25 01:00,50.630425,-96.98077,5.3,8.0,315,989.13,17.3,79,22.72,0.0,1015.26,90.0
2018-07-25 01:10,50.6304266666667,-96.9807566666667,4.9,7.7,314,989.13,17.3,79,22.72,0.0,1015.26,90.0
2018-07-25 01:20,50.6304266666667,-96.980765,6.1,9.2,317,989.15,17.3,79,22.72,0.0,1015.27,90.0
2018-07-25 01:30,50.6304233333333,-96.9807216666667,6.8,12.0,316,989.14,17.2,79,22.72,0.0,1015.27,90.0
2018-07-25 01:40,50.6304316666667,-96.9807433333333,6.1,11.1,311,989.11,17.1,79,22.71,0.0,1015.24,90.0
2018-07-25 01:50,50.6304316666667,-96.9807466666667,5.0,7.2,306,989.15,17.0,80,22.68,0.0,1015.29,90.0
2018-07-25 02:00,50.6304333333333,-96.98075,4.2,7.4,297,989.22,17.0,81,22.67,0.0,1015.38,90.0
2018-07-25 02:10,50.6304333333333,-96.9807516666667,4.1,6.5,291,989.25,16.9,82,22.65,0.0,1015.41,90.0
2018-07-25 02:20,50.630435,-96.980755,4.1,6.3,284,989.33,16.9,83,22.65,0.0,1015.50,90.0
2018-07-25 02:30,50.6304366666667,-96.980755,4.3,6.8,287,989.40,16.8,84,22.64,0.0,1015.61,90.0
2018-07-25 02:40,50.6304383333333,-96.9807533333333,7.1,12.9,298,989.43,16.6,84,22.63,0.0,1015.68,90.0
2018-07-25 02:50,50.6304266666667,-96.98076,5.9,8.9,269,989.39,16.3,86,22.62,0.0,1015.67,90.0
2018-07-25 03:00,50.6304283333333,-96.980755,4.9,8.1,255,989.41,16.3,86,22.61,0.0,1015.68,360.0
2018-07-25 03:10,50.630445,-96.9807783333333,5.2,9.5,254,989.35,16.4,85,22.61,0.0,1015.61,360.0
2018-07-25 03:20,50.6304433333333,-96.9807566666667,5.3,9.9,261,989.30,16.3,83,22.59,0.0,1015.57,360.0
2018-07-25 03:30,50.6304466666667,-96.9807566666667,4.9,8.4,269,989.23,16.3,82,22.57,0.0,1015.50,360.0
2018-07-25 03:40,50.6304466666667,-96.9807566666667,4.4,6.9,265,989.16,16.2,82,22.53,0.0,1015.44,360.0
2018-07-25 03:50,50.6304466666667,-96.9807533333333,4.4,7.0,265,989.09,16.2,83,22.53,0.0,1015.38,360.0
2018-07-25 04:00,50.6304483333333,-96.980755,5.3,8.6,261,989.17,16.1,83,22.53,0.0,1015.46,27.6
2018-07-25 04:10,50.6304466666667,-96.980755,5.6,9.0,265,989.10,16.0,84,22.51,0.0,1015.40,27.6
2018-07-25 04:20,50.630445,-96.980755,5.5,8.6,276,989.01,16.0,85,22.52,0.0,1015.31,27.6
2018-07-25 04:30,50.6304433333333,-96.9807566666667,5.8,9.9,274,989.00,15.8,86,22.50,0.0,1015.31,27.6
2018-07-25 04:40,50.6304216666667,-96.9807616666667,5.4,9.6,275,988.96,15.8,85,22.49,0.0,1015.29,27.6
2018-07-25 04:50,50.6304466666667,-96.9807616666667,4.9,7.6,270,988.99,15.8,85,22.50,0.0,1015.33,27.6
2018-07-25 05:00,50.63043,-96.9807616666667,5.7,8.3,265,988.98,15.7,84,22.49,0.0,1015.31,192.6
2018-07-25 05:10,50.6304366666667,-96.9807566666667,5.6,9.9,269,988.95,15.7,84,22.48,0.0,1015.28,192.6
2018-07-25 05:20,50.630415,-96.980765,6.0,10.5,264,988.89,15.7,83,22.47,0.0,1015.22,192.6
2018-07-25 05:30,50.6304566666667,-96.980755,6.4,10.7,263,988.82,15.7,83,22.47,0.0,1015.16,192.6
2018-07-25 05:40,50.630445,-96.9807566666667,6.8,10.8,263,988.86,15.7,82,22.47,0.0,1015.20,192.6
2018-07-25 05:50,50.6304466666667,-96.9807516666667,6.1,10.1,275,988.78,15.7,82,22.47,0.0,1015.12,192.6
2018-07-25 06:00,50.6304466666667,-96.980755,5.7,9.7,275,988.73,15.5,83,22.46,0.0,1015.08,360.0
2018-07-25 06:10,50.6304466666667,-96.9807566666667,4.8,9.5,274,988.73,15.3,85,22.45,0.0,1015.09,360.0
2018-07-25 06:20,50.6304466666667,-96.9807583333333,5.4,8.3,276,988.68,15.0,86,22.41,0.0,1015.06,360.0
2018-07-25 06:30,50.630445,-96.9807566666667,5.0,7.8,272,988.63,14.8,87,22.39,0.0,1015.02,360.0
2018-07-25 06:40,50.630445,-96.9807566666667,5.0,7.0,276,988.56,14.6,89,22.38,0.0,1014.96,360.0
2018-07-25 06:50,50.630445,-96.9807566666667,5.4,8.0,274,988.53,14.4,90,22.38,0.0,1014.94,360.0
2018-07-25 07:00,50.630445,-96.9807566666667,4.9,8.3,262,988.53,14.4,91,22.37,0.0,1014.94,360.0
2018-07-25 07:10,50.6304433333333,-96.9807566666667,4.2,6.7,261,988.48,14.4,91,22.36,0.0,1014.89,360.0
2018-07-25 07:20,50.6304416666667,-96.9807566666667,4.0,6.5,262,988.36,14.4,92,22.36,0.0,1014.77,360.0
2018-07-25 07:30,50.6304416666667,-96.9807566666667,4.3,7.0,264,988.34,14.5,92,22.36,0.0,1014.74,360.0
2018-07-25 07:40,50.6304416666667,-96.9807583333333,4.3,6.5,266,988.37,14.7,92,22.35,0.0,1014.76,360.0
2018-07-25 07:50,50.6304483333333,-96.9807833333333,4.8,8.3,262,988.40,14.8,91,22.32,0.0,1014.80,360.0
2018-07-25 08:00,50.6304433333333,-96.9807766666667,4.4,8.8,262,988.35,14.9,91,22.31,0.0,1014.75,327.5
2018-07-25 08:10,50.6304416666667,-96.9807716666667,5.0,8.1,273,988.30,15.0,89,22.31,0.0,1014.70,327.5
2018-07-25 08:20,50.6304433333333,-96.9807683333333,4.9,8.4,271,988.34,15.1,88,22.30,0.0,1014.76,327.5
2018-07-25 08:30,50.6304416666667,-96.980765,4.6,7.2,276,988.31,15.0,89,22.30,0.0,1014.74,327.5
2018-07-25 08:40,50.6304416666667,-96.980765,3.7,6.5,271,988.36,14.8,90,22.30,0.0,1014.80,327.5
2018-07-25 08:50,50.6304416666667,-96.980765,3.4,6.0,269,988.35,14.6,91,22.29,0.0,1014.81,327.5
2018-07-25 09:00,50.6304433333333,-96.9807633333333,3.2,5.5,256,988.32,14.4,92,22.27,0.0,1014.79,192.6
2018-07-25 09:10,50.6304433333333,-96.9807616666667,4.1,5.8,234,988.26,14.1,95,22.26,0.0,1014.74,192.6
2018-07-25 09:20,50.6304433333333,-96.9807616666667,4.1,5.8,245,988.14,13.8,97,22.22,0.0,1014.62,192.6
2018-07-25 09:30,50.6304416666667,-96.9807616666667,3.9,6.1,254,988.06,13.7,98,22.22,0.0,1014.54,192.6
2018-07-25 09:40,50.6304416666667,-96.9807616666667,4.1,6.7,251,987.98,13.6,99,22.23,0.0,1014.46,192.6
2018-07-25 09:50,50.6304416666667,-96.98076,4.5,7.2,257,987.94,13.6,99,22.23,0.0,1014.41,192.6
2018-07-25 10:00,50.63041,-96.980745,4.1,6.8,260,987.88,13.6,99,22.22,0.0,1014.34,156.5
2018-07-25 10:10,50.6304316666667,-96.9807566666667,4.2,7.7,256,987.84,13.5,98,22.21,0.0,1014.30,156.5
2018-07-25 10:20,50.6304366666667,-96.9807583333333,4.1,6.5,256,987.84,13.6,98,22.20,0.0,1014.31,156.5
2018-07-25 10:30,50.630435,-96.98075,3.4,5.1,244,987.88,13.5,99,22.20,0.0,1014.35,156.5
2018-07-25 10:40,50.6304383333333,-96.9807533333333,4.2,5.9,234,987.90,13.2,99,22.19,0.0,1014.39,156.5
2018-07-25 10:50,50.6304383333333,-96.980755,3.9,5.7,243,987.86,13.1,99,22.18,0.0,1014.37,156.5
2018-07-25 11:00,50.6304383333333,-96.980755,4.1,6.7,244,987.75,13.1,99,22.16,0.0,1014.28,90.0
2018-07-25 11:10,50.63044,-96.980755,4.4,6.8,245,987.77,13.1,99,22.14,0.0,1014.30,90.0
2018-07-25 11:20,50.6304383333333,-96.9807566666667,4.7,6.6,252,987.77,13.1,99,22.14,0.0,1014.31,90.0
2018-07-25 11:30,50.6304433333333,-96.9807866666667,4.6,7.0,258,987.85,13.3,99,22.12,0.0,1014.39,90.0
2018-07-25 11:40,50.6304416666667,-96.98078,4.2,7.1,247,987.81,13.3,99,22.11,0.0,1014.36,90.0
2018-07-25 11:50,50.6304433333333,-96.9807616666667,3.6,6.4,247,987.74,13.3,99,22.10,0.0,1014.28,90.0
2018-07-25 12:00,50.6304383333333,-96.9807683333333,3.6,6.6,249,987.64,13.3,99,22.06,0.0,1014.18,90.0
2018-07-25 12:10,50.6304383333333,-96.9807683333333,4.6,6.7,243,987.68,13.4,99,22.04,0.0,1014.21,90.0
2018-07-25 12:20,50.63044,-96.9807683333333,4.5,7.3,263,987.70,13.7,99,22.03,0.0,1014.22,90.0
2018-07-25 12:30,50.6304383333333,-96.980765,4.4,7.3,265,987.73,14.0,98,22.03,0.0,1014.25,90.0
2018-07-25 12:40,50.63044,-96.980765,4.7,8.6,271,987.70,14.4,95,22.03,0.0,1014.20,90.0
2018-07-25 12:50,50.63044,-96.9807633333333,4.8,8.0,271,987.73,14.6,94,22.02,0.0,1014.23,90.0
2018-07-25 13:00,50.6304366666667,-96.9807566666667,5.8,11.2,286,987.70,14.9,90,22.01,0.0,1014.19,339.9
2018-07-25 13:10,50.6304366666667,-96.9807616666667,6.9,11.1,289,987.75,15.0,85,21.95,0.0,1014.23,339.9
2018-07-25 13:20,50.6304366666667,-96.9807583333333,6.2,9.8,277,987.78,15.0,85,21.93,0.0,1014.25,339.9
2018-07-25 13:30,50.6304366666667,-96.9807566666667,5.9,10.3,270,987.65,15.1,84,21.96,0.0,1014.12,339.9
2018-07-25 13:40,50.6304366666667,-96.98076,6.2,12.1,279,987.65,15.3,83,21.96,0.0,1014.11,339.9
2018-07-25 13:50,50.6304366666667,-96.9807616666667,6.9,12.0,275,987.69,15.4,79,21.96,0.0,1014.14,339.9
2018-07-25 14:00,50.6304366666667,-96.9807633333333,7.5,11.6,284,987.69,15.5,78,21.95,0.0,1014.14,192.6
2018-07-25 14:10,50.6304366666667,-96.9807633333333,6.7,11.8,286,987.70,15.5,78,21.94,0.0,1014.13,192.6
2018-07-25 14:20,50.630455,-96.9807816666667,7.0,12.4,283,987.78,15.5,77,21.94,0.0,1014.19,192.6
2018-07-25 14:30,50.6304333333333,-96.9807783333333,8.2,15.0,287,987.79,15.4,76,21.93,0.0,1014.20,192.6
2018-07-25 14:40,50.6304316666667,-96.9807583333333,7.5,11.5,276,987.84,15.4,77,21.92,0.0,1014.24,192.6
2018-07-25 14:50,50.6304333333333,-96.9807566666667,8.3,12.9,278,987.87,15.4,77,21.91,0.0,1014.25,192.6
2018-07-25 15:00,50.6304333333333,-96.980755,7.0,12.4,278,987.94,15.4,77,21.91,0.0,1014.32,165.5
2018-07-25 15:10,50.630435,-96.9807566666667,5.9,10.1,296,987.88,15.5,78,21.91,0.0,1014.25,165.5
2018-07-25 15:20,50.630435,-96.9807583333333,8.4,13.5,283,987.82,15.4,78,21.91,0.0,1014.20,165.5
2018-07-25 15:30,50.6304366666667,-96.98076,7.4,13.1,284,987.88,15.2,81,21.90,0.0,1014.26,165.5
2018-07-25 15:40,50.6304366666667,-96.9807583333333,9.5,14.3,278,987.85,15.2,79,21.89,0.0,1014.22,165.5
2018-07-25 15:50,50.6304383333333,-96.9807583333333,8.4,15.3,286,987.84,15.1,82,21.88,0.0,1014.21,165.5
2018-07-25 16:00,50.6304383333333,-96.9807583333333,7.4,14.5,287,987.79,15.1,82,21.87,0.0,1014.16,360.0
2018-07-25 16:10,50.6304383333333,-96.9807583333333,10.2,15.0,279,987.74,15.2,80,21.86,0.0,1014.09,360.0
2018-07-25 16:20,50.63044,-96.98076,11.1,19.9,279,987.66,15.2,79,21.86,0.0,1014.02,360.0
2018-07-25 16:30,50.63044,-96.9807583333333,9.6,16.1,289,987.61,15.2,79,21.86,0.0,1013.97,360.0
2018-07-25 16:40,50.6304266666667,-96.980755,9.3,18.1,287,987.67,15.2,79,21.84,0.0,1014.03,360.0
2018-07-25 16:50,50.6304316666667,-96.9807666666667,11.1,19.4,284,987.65,15.0,81,21.84,0.0,1014.02,360.0
2018-07-25 17:00,50.6304333333333,-96.9807583333333,10.9,17.4,278,987.72,15.0,80,21.84,0.0,1014.09,131.7
2018-07-25 17:10,50.630435,-96.980755,11.1,18.3,286,987.66,15.0,81,21.85,0.0,1014.03,131.7
2018-07-25 17:20,50.6304366666667,-96.9807533333333,10.5,17.4,285,987.64,15.0,81,21.84,0.0,1014.02,131.7
2018-07-25 17:30,50.6304366666667,-96.980755,10.8,19.3,289,987.60,15.3,80,21.82,0.0,1013.97,131.7
2018-07-25 17:40,50.6304366666667,-96.9807566666667,10.7,19.1,277,987.66,15.5,78,21.82,0.0,1014.03,131.7
2018-07-25 17:50,50.6304383333333,-96.9807566666667,11.6,19.0,278,987.56,15.5,80,21.83,0.0,1013.93,131.7
2018-07-25 18:00,50.63044,-96.9807583333333,10.1,15.8,285,987.56,15.6,79,21.82,0.0,1013.91,360.0
2018-07-25 18:10,50.6304416666667,-96.9807583333333,11.0,19.2,293,987.45,15.6,80,21.82,0.0,1013.80,360.0
2018-07-25 18:20,50.6304516666667,-96.98077,9.6,17.9,293,987.49,15.5,81,21.82,0.0,1013.84,360.0
2018-07-25 18:30,50.6304533333333,-96.9807783333333,10.8,16.0,282,987.49,15.4,82,21.83,0.0,1013.85,360.0
2018-07-25 18:40,50.6304483333333,-96.9807616666667,11.0,20.5,285,987.54,14.9,89,21.83,0.0,1013.93,360.0
2018-07-25 18:50,50.630445,-96.9807616666667,11.4,19.1,291,987.52,14.9,88,21.82,0.0,1013.91,360.0
2018-07-25 19:00,50.6304433333333,-96.9807633333333,10.2,18.2,286,987.53,15.2,86,21.80,0.0,1013.91,270.0
2018-07-25 19:10,50.630445,-96.9807633333333,10.9,18.6,279,987.61,15.4,84,21.79,0.0,1013.98,270.0
2018-07-25 19:20,50.6304183333333,-96.9807366666667,10.7,19.8,292,987.54,15.5,82,21.78,0.0,1013.89,270.0
2018-07-25 19:30,50.6304433333333,-96.9807633333333,10.2,16.0,291,987.48,15.6,82,21.77,0.0,1013.82,270.0
2018-07-25 19:40,50.63045,-96.9807716666667,9.5,16.9,295,987.48,15.6,82,21.78,0.0,1013.82,270.0
2018-07-25 19:50,50.6304466666667,-96.9807716666667,8.7,13.4,290,987.54,15.6,83,21.80,0.0,1013.87,270.0
2018-07-25 20:00,50.630445,-96.9807716666667,10.3,17.2,285,987.57,15.8,82,21.80,0.0,1013.89,311.7
2018-07-25 20:10,50.6304333333333,-96.980775,10.4,19.0,289,987.51,16.1,81,21.78,0.0,1013.83,311.7
2018-07-25 20:20,50.63044,-96.98077,12.3,18.5,293,987.47,16.1,81,21.76,0.0,1013.79,311.7
2018-07-25 20:30,50.6304366666667,-96.9807716666667,9.9,15.1,304,987.53,16.2,79,21.76,0.0,1013.87,311.7
2018-07-25 20:40,50.6304383333333,-96.9807733333333,10.4,18.4,297,987.50,16.3,78,21.75,0.0,1013.83,311.7
2018-07-25 20:50,50.6304366666667,-96.9807716666667,12.8,19.9,306,987.40,16.2,79,21.76,0.0,1013.72,311.7
2018-07-25 21:00,50.630435,-96.9807716666667,12.5,19.8,304,987.40,16.3,78,21.78,0.0,1013.71,234.7
2018-07-25 21:10,50.6304233333333,-96.98076,13.2,19.5,294,987.42,16.2,79,21.78,0.0,1013.73,234.7
2018-07-25 21:20,50.6304333333333,-96.9807666666667,13.9,21.6,303,987.47,16.1,79,21.76,0.0,1013.77,234.7
2018-07-25 21:30,50.6304266666667,-96.9807583333333,12.7,18.4,305,987.63,16.0,80,21.73,0.0,1013.94,234.7
2018-07-25 21:40,50.6304316666667,-96.9807583333333,13.9,21.1,309,987.58,16.0,79,21.73,0.0,1013.89,234.7
2018-07-25 21:50,50.6304216666667,-96.980795,11.0,18.9,305,987.77,16.1,80,21.74,0.0,1014.08,234.7
2018-07-25 22:00,50.6304233333333,-96.9807633333333,11.5,17.6,314,987.85,16.0,81,21.75,0.0,1014.15,142.0
2018-07-25 22:10,50.6303983333333,-96.9807933333333,12.7,18.8,309,987.79,15.9,82,21.75,0.0,1014.10,142.0
2018-07-25 22:20,50.6304266666667,-96.98076,13.1,19.8,312,987.86,15.8,82,21.78,0.0,1014.16,142.0
2018-07-25 22:30,50.63043,-96.9807583333333,11.9,19.2,315,987.99,15.9,81,21.77,0.0,1014.28,142.0
2018-07-25 22:40,50.6304316666667,-96.9807566666667,12.6,18.6,305,988.00,15.7,82,21.72,0.0,1014.31,142.0
2018-07-25 22:50,50.6304316666667,-96.9807583333333,13.0,20.9,307,988.11,15.4,84,21.74,0.0,1014.43,142.0
2018-07-25 23:00,50.630435,-96.9807733333333,12.2,19.6,310,988.22,15.1,86,21.74,0.0,1014.56,142.0
2018-07-25 23:10,50.6304316666667,-96.98077,11.2,17.7,314,988.35,15.0,88,21.74,0.0,1014.71,142.0
2018-07-25 23:20,50.6304316666667,-96.9807683333333,11.0,18.5,305,988.35,14.9,89,21.75,0.0,1014.72,142.0
2018-07-25 23:30,50.6304316666667,-96.9807683333333,11.6,17.9,310,988.32,14.8,89,21.73,0.0,1014.69,142.0
